Regional Weather Roundup
Issued by NWS

Home | Current Version | Previous Version | Text Only | Print | Product List | Glossary Off
Versions: 1 2 3 4 5 6 7 8 9 10 11 12 13 14 15 16 17 18 19 20 21 22 23 24 25 26 27 28 29 30 31 32 33 34 35 36 37 38 39 40 41 42 43 44 45 46 47 48 49 50

728
ASUS43 KLSX 282110
RWRMO

WEATHER SUMMARY FOR MISSOURI
NATIONAL WEATHER SERVICE SPRINGFIELD MO
400 PM CDT THU APR 28 2016

NOTE: "FAIR" INDICATES FEW OR NO CLOUDS BELOW 12,000 FEET WITH NO
       SIGNIFICANT WEATHER AND/OR OBSTRUCTIONS TO VISIBILITY.
       CURRENT SKY AND/OR WEATHER CONDITIONS ARE NOT AVAILABLE FOR
       CHILLICOTHE AND FARMINGTON.

MOZ001>031-035>038-043-044-053-054-282200-
...NORTHERN AND WESTERN MISSOURI...

CITY           SKY/WX    TMP DP  RH WIND       PRES   REMARKS
KANSAS CTY INT CLOUDY    55  46  71 NW10      29.97F
KANSAS C DTWN  PTSUNNY   59  46  62 NW10      29.97S
LEE`S SUMMIT   PTSUNNY   62  49  62 N8        29.96S
ST JOSEPH      CLOUDY    55  46  71 NW13      29.97F
CHILLICOTHE      N/A     58  48  69 VRB7G17   29.97R
KIRKSVILLE     CLOUDY    58  47  66 W9        29.94R

$$
MOZ066>068-077>081-088>096-101>105-282200-
...SOUTHWEST MISSOURI...

CITY           SKY/WX    TMP DP  RH WIND       PRES   REMARKS
SPRINGFIELD    MOSUNNY   70  44  39 NW8       29.96S
JOPLIN         SUNNY     69  48  47 NW6       29.97F
BRANSON        MOSUNNY   75  39  27 NW8       29.97F

$$
MOZ032>034-039>042-045>050-055>058-069>072-282200-
...CENTRAL MISSOURI...

CITY           SKY/WX    TMP DP  RH WIND       PRES   REMARKS
COLUMBIA       MOSUNNY   66  51  58 W13       29.93S
JEFFERSON CITY SUNNY     68  48  48 NW12      29.92S
ROLLA          SUNNY     70  48  45 VRB5      29.91S
SEDALIA        MOSUNNY   65  51  60 NW8       29.96R
WHITEMAN AFB   PTSUNNY   63  50  63 W10       29.94F
WARRENSBURG    MOSUNNY   64  46  52 W6        29.95S
OSAGE BEACH    SUNNY     70  45  40 W8        29.94R

$$
MOZ051-052-059>065-282200-
...EAST CENTRAL MISSOURI...

CITY           SKY/WX    TMP DP  RH WIND       PRES   REMARKS
ST LOUIS INTL  MOSUNNY   73  48  41 W10G20    29.90S
SPIRIT OF STL  MOSUNNY   72  50  45 NW12      29.89S
ST CHARLES     SUNNY     71  50  47 W14       29.89S

$$
MOZ072>076-082>087-097>100-106>115-282200-
...SOUTH CENTRAL AND SOUTHEAST MISSOURI...

CITY           SKY/WX    TMP DP  RH WIND       PRES   REMARKS
CAPE GIRARDEAU SUNNY     77  49  37 W8        29.89F
FARMINGTON     SUNNY     76  45  33 W8G20     29.91S
POPLAR BLUFF   SUNNY     80  48  32 W6        29.90S
WEST PLAINS    SUNNY     77  40  26 W10G17    29.95S

$$




USA.gov is the U.S. government's official web portal to all federal, state and local government web resources and services.